Погода в Верхозиме

Россия / Пензенская область     52°53′47″N   46°21′17″E
В апреле 2022 года жителям России запретили посещать сайт meteo.paraplan.net по решению Генеральной прокуратуры. Аудитория сайта уменьшилась в 10 раз. Владельцы сайта не видят смысла в поддержке погодного сервера в таких условиях. Сайт будет закрыт в октябре.
темп.,
°C
ветер,
м/с
пор.,
м/с
влажн.,
%
обл.,
%
осадки,
мм/ч
давл.,
гПа
погр.,
м
25 сентября, вс
вс2500:00+8ю377422 0.0 1010130
03:00+8ююв3674100 0.0 1010118
06:00+7ююв2279100 0.0 100832
09:00+11ю346399 0.0 1007415
12:00+13ю445638 0.1 10061256
15:00+14ююз4654100 0.5 10051453
18:00+10зюз597478 0.2 1006615
21:00+8зюз598470 0.2 1006580
26 сентября, пн
пн2600:00+7зюз5879100 0.0 1006737
03:00+7зюз6990100 2.1 10061056
06:00+7з5890100 2.1 10061099
09:00+7з6986100 2.5 10081016
12:00+8з61085100 0.5 10101031
15:00+9зсз477798 0.8 10111030
18:00+8зюз6108399 0.4 1013614
21:00+6з4109013 0.5 1014393
27 сентября, вт
вт2700:00+7з388595 0.0 1015463
03:00+5зюз33925 0.1 101558
06:00+4юз229064 0.0 101613
09:00+9ю236699 0.0 1016320
12:00+10ююв3566100 0.0 1016408
15:00+7юв3789100 1.6 1016338
18:00+8вюв51092100 1.6 1016421
21:00+8вюв41095100 4.9 1015392
28 сентября, ср
ср2800:00+9юв4892100 1.9 1014277
03:00+9вюв3693100 1.9 1014152
06:00+9юв4891100 0.0 1013206
09:00+11ююв41193100 0.9 1013400
12:00+11вюв51189100 1.9 1012427
15:00+13вюв51077100 1.9 1011466
18:00+12вюв71480100 0.0 1010369
21:00+11вюв51379100 0.1 1010315
29 сентября, чт
чт2900:00+11вюв61278100 0.0 1009277
03:00+11вюв5107897 0.0 1009255
06:00+10вюв3786100 0.3 1009200
09:00+12вюв2580100 0.4 1010221
12:00+16юв2265100 0.6 1011575
15:00+18всв216326 0.8 1012855
18:00+14всв368298 0.0 1014149
21:00+12всв358496 0.0 1016145